Change the Weather History Date:

Monday, January 23, 2012

  Actual Average Record
Temperature  
Mean Temperature 37 °F -  
Max Temperature 53 °F 42 °F 68 °F (1981)
Min Temperature 21 °F 20 °F -8 °F (1963)
Degree Days  
Heating Degree Days 28    
Moisture  
Dew Point 19 °F    
Average Humidity 57    
Maximum Humidity 85    
Minimum Humidity 23    
Precipitation  
Precipitation 0.00 in - - ()
Sea Level Pressure  
Sea Level Pressure 29.97 in    
Wind  
Wind Speed 12 mph (WSW)    
Max Wind Speed 21 mph    
Max Gust Speed 25 mph    
Visibility 10 miles    
Events      
Averages and records for this station are not official NWS values.
T = Trace of Precipitation, MM = Missing Value Source: NWS Daily Summary

Daily Weather History Graph

Daily Weather History Graph

Search for Another Location

Airport or City:

Trip Planner

Search our weather history database for the weather conditions in past years. The results will help you decide how hot, cold, wet, or windy it might be!

Date:

Astronomy

Jan. 23, 2012 Rise Set
Actual Time 7:48 AM CST 5:45 PM CST
Civil Twilight 7:19 AM CST 6:14 PM CST
Nautical Twilight 6:47 AM CST 6:46 PM CST
Astronomical Twilight 6:15 AM CST 7:18 PM CST
Moon 7:45 AM CST (1/23) 6:34 PM CST (1/23)
Length of Visible Light 10h 54m
Length of Day
9h 57m
New Moon, 0% of the Moon is Illuminated
Jan 23
New Moon
Jan 30
First Quarter
Feb 7
Full
Feb 14
Last Quarter
Feb 21
New

Hourly Weather History & Observations

Time (CST) Temp. Windchill Dew Point Humidity Pressure Visibility Wind Dir Wind Speed Gust Speed Precip Events Conditions
12:53 AM 34.0 °F 22.4 °F 27.0 °F 75% 29.83 in 10.0 mi WNW 20.7 mph 25.3 mph N/A   Clear
1:53 AM 34.0 °F 24.2 °F 23.0 °F 64% 29.86 in 10.0 mi West 15.0 mph - N/A   Clear
2:53 AM 32.0 °F 22.1 °F 21.0 °F 64% 29.90 in 10.0 mi WNW 13.8 mph - N/A   Clear
3:53 AM 30.9 °F 21.2 °F 19.9 °F 64% 29.92 in 10.0 mi WNW 12.7 mph - N/A   Clear
4:53 AM 25.0 °F 17.1 °F 18.0 °F 75% 29.94 in 10.0 mi WNW 6.9 mph - N/A   Clear
5:53 AM 24.1 °F 16.0 °F 17.1 °F 75% 29.97 in 10.0 mi SW 6.9 mph - N/A   Clear
6:53 AM 23.0 °F 13.1 °F 17.6 °F 80% 29.93 in 10.0 mi West 9.2 mph - N/A   Clear
7:53 AM 21.0 °F 9.9 °F 17.1 °F 85% 30.00 in 10.0 mi WSW 10.4 mph - N/A   Clear
8:53 AM 25.0 °F 16.3 °F 19.9 °F 81% 30.01 in 10.0 mi SW 8.1 mph - N/A   Clear
9:53 AM 33.1 °F 24.4 °F 21.9 °F 64% 30.03 in 10.0 mi West 11.5 mph - N/A   Clear
10:53 AM 39.0 °F 31.8 °F 21.9 °F 50% 30.03 in 10.0 mi West 11.5 mph - N/A   Clear
12:53 PM 48.0 °F - 16.0 °F 28% 29.98 in 10.0 mi WNW 10.4 mph - N/A   Clear
1:53 PM 51.1 °F - 16.0 °F 25% 29.96 in 10.0 mi West 10.4 mph - N/A   Clear
2:53 PM 53.1 °F - 16.0 °F 23% 29.95 in 10.0 mi West 10.4 mph - N/A   Unknown
3:53 PM 52.0 °F - 19.0 °F 27% 29.94 in 10.0 mi WSW 10.4 mph - N/A   Clear
4:53 PM 48.9 °F - 18.0 °F 29% 29.96 in 10.0 mi SSW 4.6 mph - N/A   Clear
5:53 PM 42.1 °F 39.2 °F 16.0 °F 35% 29.97 in 10.0 mi SSE 4.6 mph - N/A   Clear
6:53 PM 35.1 °F 27.9 °F 18.0 °F 50% 30.01 in 10.0 mi South 9.2 mph - N/A   Clear
7:53 PM 33.1 °F 25.5 °F 19.9 °F 59% 30.03 in 10.0 mi South 9.2 mph - N/A   Clear
8:53 PM 30.9 °F 22.8 °F 19.9 °F 64% 30.02 in 10.0 mi South 9.2 mph - N/A   Clear
9:53 PM 30.9 °F 22.8 °F 21.0 °F 67% 30.01 in 10.0 mi South 9.2 mph - N/A   Clear
10:53 PM 30.9 °F 22.8 °F 21.0 °F 67% 30.01 in 10.0 mi South 9.2 mph - N/A   Clear
11:53 PM 30.0 °F - 21.0 °F 69% 30.01 in 10.0 mi North - - N/A   Clear